Wink, TX

5:29 AM CST on December 18, 2017 (GMT -0600)
Winkler County

Weather History for KINK - March, 2012

Change the Weather History Date:

Thursday, March 1, 2012

  Actual Average Record
Temperature  
Mean Temperature 61 °F -  
Max Temperature 80 °F 68 °F 93 °F (2006)
Min Temperature 42 °F 37 °F 18 °F (1962)
Degree Days  
Heating Degree Days 4    
Growing Degree Days 11 (Base 50)    
Moisture  
Dew Point 5 °F    
Average Humidity 13    
Maximum Humidity 27    
Minimum Humidity 4    
Precipitation  
Precipitation 0.00 in - - ()
Sea Level Pressure  
Sea Level Pressure 29.77 in    
Wind  
Wind Speed 12 mph (WSW)    
Max Wind Speed 24 mph    
Max Gust Speed 39 mph    
Visibility 10 miles    
Events      
Averages and records for this station are not official NWS values.
T = Trace of Precipitation, MM = Missing Value Source: NWS Daily Summary

Daily Weather History Graph

Daily Weather History Graph

Search for Another Location

Airport or City:

Trip Planner

Search our weather history database for the weather conditions in past years. The results will help you decide how hot, cold, wet, or windy it might be!

Date:

Astronomy

Mar. 01, 2012 Rise Set
Actual Time 7:19 AM CST 6:51 PM CST
Civil Twilight 6:54 AM CST 7:15 PM CST
Nautical Twilight 6:26 AM CST 7:43 PM CST
Astronomical Twilight 5:58 AM CST 8:12 PM CST
Moon 12:29 PM CST (3/1) 2:03 AM CST (3/1)
Length of Visible Light 12h 20m
Length of Day
11h 31m
First Quarter, 57% of the Moon is Illuminated
Mar 1
First Quarter
Mar 8
Full
Mar 14
Last Quarter
Mar 22
New
Mar 30
First Quarter

Hourly Weather History & Observations

Time (CST) Temp. Windchill Dew Point Humidity Pressure Visibility Wind Dir Wind Speed Gust Speed Precip Events Conditions
12:53 AM 48.9 °F - 6.1 °F 18% 29.89 in 10.0 mi SSW 4.6 mph - N/A   Clear
1:53 AM 46.4 °F 41.9 °F 8.6 °F 22% 29.96 in 10.0 mi South 9.2 mph - N/A   Clear
2:53 AM 46.0 °F 41.4 °F 9.0 °F 22% 29.87 in 10.0 mi SSW 9.2 mph - N/A   Clear
3:53 AM 43.0 °F 37.2 °F 10.0 °F 26% 29.86 in 10.0 mi SSW 10.4 mph - N/A   Clear
4:53 AM 42.1 °F 36.6 °F 10.0 °F 27% 29.85 in 10.0 mi SW 9.2 mph - N/A   Clear
5:53 AM 44.1 °F 38.1 °F 10.0 °F 25% 29.85 in 10.0 mi SW 11.5 mph - N/A   Clear
6:53 AM 45.0 °F 39.7 °F 9.0 °F 23% 29.85 in 10.0 mi SW 10.4 mph - N/A   Clear
7:53 AM 53.6 °F - 8.6 °F 16% 29.91 in 10.0 mi SW 15.0 mph - N/A   Clear
8:53 AM 62.6 °F - 8.6 °F 12% 29.92 in 10.0 mi SW 12.7 mph - N/A   Clear
9:53 AM 68.0 °F - 8.6 °F 10% 29.93 in 10.0 mi SW 18.4 mph - N/A   Clear
10:53 AM 71.1 °F - 9.0 °F 9% 29.83 in 10.0 mi WSW 18.4 mph 24.2 mph N/A   Clear
11:53 AM 75.0 °F - 8.1 °F 8% 29.80 in 10.0 mi SW 17.3 mph 27.6 mph N/A   Clear
12:53 PM 78.1 °F - 6.1 °F 6% 29.75 in 10.0 mi WSW 18.4 mph 27.6 mph N/A   Clear
1:53 PM 80.1 °F - -0.0 °F 4% 29.70 in 10.0 mi WSW 23.0 mph 32.2 mph N/A   Clear
2:53 PM 80.1 °F - 1.9 °F 5% 29.67 in 10.0 mi WSW 23.0 mph 34.5 mph N/A   Clear
3:53 PM 80.6 °F - 1.4 °F 5% 29.74 in 10.0 mi West 20.7 mph 39.1 mph N/A   Clear
4:53 PM 80.1 °F - -2.9 °F 4% 29.63 in 10.0 mi West 23.0 mph 34.5 mph N/A   Clear
5:53 PM 77.0 °F - -2.0 °F 5% 29.62 in 10.0 mi West 24.2 mph 33.4 mph N/A   Clear
6:53 PM 71.1 °F - -0.0 °F 6% 29.64 in 10.0 mi WSW 9.2 mph - N/A   Clear
7:53 PM 66.0 °F - -0.9 °F 7% 29.63 in 10.0 mi West 3.5 mph - N/A   Clear
8:53 PM 63.0 °F - 1.9 °F 9% 29.62 in 10.0 mi West 6.9 mph - N/A   Clear
9:53 PM 61.0 °F - 1.9 °F 9% 29.62 in 10.0 mi WSW 9.2 mph - N/A   Clear
10:53 PM 61.0 °F - 3.9 °F 10% 29.63 in 10.0 mi West 9.2 mph - N/A   Clear
11:53 PM 57.0 °F - 6.1 °F 13% 29.64 in 10.0 mi WSW 4.6 mph - N/A   Clear